Wind_Speed
14 17 16 14 12 11 10 9 8 7 6 6 7 7 8 9 10 11 12 13 12 11 10 9 8 7 5 5 5 4 4 5 6 6 6 6 5 2 1 4 1 2 3
14 14 13 11 9 8 7 7 7 5 3 3 4 6 6 6 7 8 10 10 10 9 8 7 5 4 4 3 2 3 2 2 3 3 3 4 5 3 3 3 2 2 4
11 10 9 9 7 5 4 4 4 4 2 1 4 7 7 6 4 5 6 7 7 7 7 6 4 1 1 1 0 1 1 1 1 2 2 2 3 3 3 2 2 0 3
7 7 6 6 5 2 1 1 1 2 2 2 5 8 9 8 5 4 4 5 5 5 5 4 3 2 2 3 2 1 1 1 1 0 0 1 2 3 4 2 2 1 2
6 4 4 4 3 2 2 3 2 2 4 5 6 8 9 8 6 6 6 7 7 7 7 5 3 3 3 5 6 5 3 3 3 3 1 1 2 2 4 4 3 3 1
6 5 5 5 4 5 6 5 4 4 8 9 9 8 8 7 7 7 7 9 11 10 8 6 4 3 4 6 7 8 7 5 5 5 4 3 2 1 1 1 2 2 2
5 5 6 6 6 6 7 7 5 7 12 13 12 9 6 5 6 6 8 11 12 11 10 7 4 4 6 7 8 8 9 9 8 6 5 5 4 4 3 2 1 1 1
7 9 10 9 8 8 9 10 10 12 15 16 14 10 7 7 8 8 9 9 9 10 9 8 7 6 8 10 9 10 9 10 11 10 8 7 7 7 5 4 3 2 3
7 8 11 12 12 11 12 14 14 15 16 15 14 11 9 10 10 10 8 8 6 9 9 8 8 8 8 9 10 10 10 11 12 13 11 9 10 10 9 8 6 5 4
7 8 9 11 13 14 14 15 15 15 15 15 14 13 13 13 13 11 10 10 8 8 9 8 8 8 8 9 10 9 9 11 12 13 14 12 11 12 12 11 11 9 7
8 8 9 10 12 12 14 15 16 16 16 17 17 17 17 17 18 17 15 15 14 12 11 10 8 7 7 9 10 11 9 10 12 13 15 14 14 13 13 14 14 12 10
10 10 11 12 11 11 12 13 15 16 17 19 20 21 22 22 21 21 20 20 19 18 16 14 11 9 8 9 11 11 10 9 10 13 15 17 17 16 15 16 17 15 13
13 14 15 16 15 15 15 16 16 15 16 17 17 18 20 22 23 23 23 24 23 22 21 20 17 13 10 11 12 11 10 10 10 11 13 17 19 18 17 17 18 18 17
17 19 20 21 20 21 22 21 19 19 20 20 20 20 22 24 24 24 24 26 27 26 25 25 23 18 15 13 13 12 11 10 11 11 12 15 19 20 20 19 19 19 20
24 25 26 26 26 28 29 29 27 27 28 27 26 24 22 23 25 25 25 26 27 28 27 25 25 22 20 19 16 13 12 12 13 13 13 13 17 21 23 23 21 20 21
31 31 33 35 35 36 36 36 36 36 36 33 31 31 29 28 27 27 28 28 27 28 28 27 27 26 24 22 20 17 14 13 14 15 16 15 16 18 21 23 25 23 23
36 37 39 41 41 41 40 40 40 40 38 37 37 38 37 34 32 31 31 30 31 31 30 31 30 29 28 25 23 21 20 19 18 18 18 19 18 19 20 22 24 27 26
42 42 44 45 46 46 45 44 45 43 42 42 41 42 43 42 40 37 34 33 34 35 35 33 32 33 32 29 26 25 25 24 23 22 21 22 22 22 22 24 26 27 28
47 47 46 46 47 46 45 45 50 48 45 46 44 44 47 49 50 45 38 37 39 39 38 38 36 35 35 33 31 30 29 28 27 25 25 26 26 26 26 26 26 27 28
51 51 51 51 51 50 48 48 54 55 52 56 52 49 53 54 54 53 50 46 45 43 41 42 39 38 37 36 35 35 33 30 29 29 29 30 30 28 27 28 28 27 29
50 50 51 51 52 52 55 54 57 61 63 59 59 61 60 57 56 59 66 62 54 49 45 42 39 37 37 36 36 35 33 30 30 31 31 31 31 30 28 27 29 28 30
47 48 50 51 53 54 53 51 57 65 63 53 57 64 67 60 55 58 62 69 63 55 50 45 41 39 37 36 34 31 29 31 31 30 32 33 32 33 31 28 28 30 31
45 46 47 46 48 48 47 49 50 53 59 61 66 71 66 57 52 51 61 63 58 56 48 46 43 38 36 33 32 30 30 30 31 32 33 35 33 31 32 31 31 32 33
43 43 43 43 44 44 44 45 47 48 47 51 56 59 60 57 51 47 48 36 48 54 45 44 49 44 39 36 35 35 36 35 33 30 30 34 34 30 29 31 34 35 36
37 36 36 38 40 41 40 42 45 49 49 49 50 50 49 49 49 44 43 31 32 42 45 39 49 55 51 45 42 38 36 35 33 28 27 29 31 30 28 30 35 37 37
33 34 35 38 40 42 42 42 44 47 49 49 48 47 45 43 45 43 39 41 39 37 38 42 47 47 52 48 41 35 35 33 30 27 26 26 28 29 30 30 33 35 36
Wind_Direction
128 132 130 128 125 122 121 119 117 116 111 100 88 77 74 78 76 78 78 79 77 78 83 85 83 81 71 61 64 65 61 55 54 60 63 56 36 16 357 6 348 175 108
134 135 132 129 128 126 131 133 135 143 133 97 59 40 44 59 71 73 69 69 69 71 74 77 84 95 94 83 75 83 75 71 76 76 66 53 42 16 330 340 20 208 196
136 139 139 138 145 153 163 165 163 179 184 80 26 15 13 22 47 68 69 62 57 55 55 56 55 77 123 108 79 59 76 75 79 86 77 57 47 31 359 349 346 237 209
145 155 157 155 163 183 204 226 226 251 266 328 353 2 1 3 2 358 23 31 32 30 27 29 16 326 254 222 229 237 268 282 290 283 118 39 38 63 52 32 18 320 243
155 168 183 184 191 234 275 281 284 328 344 332 333 348 352 352 351 344 357 13 11 2 1 3 6 335 292 254 237 236 240 268 279 292 314 342 14 75 73 51 49 46 355
166 184 206 211 222 250 264 264 277 337 336 329 324 331 345 350 3 4 5 357 353 350 349 350 1 354 319 298 263 245 247 257 271 287 301 308 314 284 134 92 54 46 55
195 220 232 238 249 267 284 287 287 323 328 328 320 311 321 338 347 347 338 339 344 347 340 336 345 3 357 335 299 267 252 261 272 280 287 280 287 286 255 202 189 240 264
239 240 245 251 264 278 291 296 294 303 312 319 319 301 296 308 311 312 316 324 340 346 341 328 325 351 4 355 328 295 272 262 269 275 275 270 268 274 276 252 224 238 261
276 270 264 264 269 275 285 288 290 297 304 311 311 291 277 289 300 304 294 291 319 335 334 332 325 330 353 359 345 317 289 267 265 267 270 269 267 270 268 268 264 259 269
287 284 278 276 274 275 283 287 288 291 294 296 292 278 265 272 286 297 289 271 278 304 314 320 330 330 342 347 346 337 298 273 263 265 265 265 265 267 266 263 263 271 280
288 288 286 285 282 284 286 287 288 288 286 286 284 279 275 275 279 284 284 273 267 274 285 294 312 322 326 335 339 344 326 284 267 261 261 261 260 261 261 261 263 269 278
277 274 274 278 279 282 285 288 289 287 285 284 283 281 280 282 281 280 276 271 264 258 265 272 282 296 313 331 332 336 337 322 290 267 261 261 262 262 262 265 268 270 271
278 280 281 280 272 267 267 273 278 279 278 278 284 292 291 286 282 280 277 271 262 256 262 264 264 277 291 310 321 327 328 323 315 290 266 260 261 262 266 270 274 273 273
277 275 275 275 269 265 269 274 275 273 274 275 283 293 295 292 286 283 279 270 263 260 261 263 258 263 274 285 296 311 318 315 310 307 292 268 259 259 259 264 271 275 275
272 271 274 275 273 273 276 276 274 272 272 275 278 283 287 288 286 281 277 273 271 267 262 260 255 256 267 275 279 290 305 309 303 303 301 290 271 262 259 260 262 267 273
277 277 280 282 280 279 279 275 274 275 274 274 277 277 275 270 268 273 277 278 277 273 266 260 254 254 262 268 274 281 290 297 297 298 298 296 288 276 265 263 264 265 270
275 279 282 284 281 277 276 274 272 272 272 272 275 279 277 272 263 262 268 271 272 271 265 259 254 254 260 263 268 276 285 291 294 293 291 291 290 287 281 270 271 270 268
276 278 280 283 284 283 281 278 274 269 270 271 273 275 275 272 269 264 263 264 269 271 265 260 256 255 256 258 264 273 279 282 287 291 289 287 283 282 282 279 274 272 268
275 276 276 276 275 273 272 277 281 268 266 269 269 271 272 273 271 266 262 263 266 268 262 256 252 252 253 257 264 270 274 279 283 285 282 280 279 279 278 276 273 269 265
273 274 275 275 274 270 263 267 268 263 260 262 259 258 265 270 271 268 267 265 263 263 259 254 250 248 251 257 264 269 273 277 280 280 278 277 277 276 273 272 269 266 263
273 274 274 274 272 271 270 268 266 262 260 257 263 265 264 265 268 267 267 262 259 258 256 253 251 249 252 257 263 268 274 278 279 278 278 278 279 277 272 268 264 262 263
274 274 273 273 275 275 275 280 277 261 260 261 268 271 267 267 273 271 278 267 254 253 249 246 250 250 254 258 262 267 271 277 279 278 279 279 278 277 274 267 260 257 259
273 274 276 275 276 278 282 283 282 270 267 268 272 268 269 275 283 283 282 264 245 247 246 243 245 245 254 257 264 269 274 277 278 279 280 279 277 274 272 268 261 257 256
275 275 275 276 277 278 278 278 276 274 272 270 271 268 270 275 277 284 275 247 231 242 246 246 239 238 246 254 261 272 279 277 275 273 274 276 278 274 269 268 266 261 258
279 280 280 280 281 280 277 274 273 273 273 273 273 272 276 278 279 280 268 230 249 249 248 245 252 249 244 251 263 271 274 276 275 271 266 270 275 276 272 268 269 268 265
285 286 286 285 285 283 280 276 274 277 279 277 275 277 278 278 278 272 258 265 266 257 250 252 253 248 247 252 260 265 268 271 270 266 266 269 272 275 275 272 271 273 271
Height
5935 5934 5933 5933 5933 5933 5933 5932 5932 5931 5930 5928 5927 5926 5924 5923 5922 5920 5918 5917 5916 5914 5913 5912 5911 5909 5908 5907 5907 5905 5904 5903 5901 5901 5900 5900 5900 5899 5899 5898 5897 5896 5896
5936 5935 5934 5934 5934 5934 5934 5933 5932 5932 5931 5930 5929 5928 5926 5925 5923 5921 5919 5918 5917 5916 5914 5913 5911 5910 5908 5907 5906 5905 5905 5904 5902 5902 5901 5900 5900 5899 5899 5899 5898 5897 5897
5937 5937 5936 5935 5935 5934 5934 5934 5934 5933 5932 5931 5930 5929 5928 5927 5925 5922 5920 5919 5918 5917 5915 5914 5912 5910 5909 5908 5906 5905 5905 5904 5904 5903 5903 5902 5901 5900 5899 5899 5898 5898 5898
5937 5938 5938 5937 5936 5936 5936 5936 5935 5934 5933 5933 5932 5930 5929 5927 5925 5924 5922 5920 5919 5917 5916 5914 5912 5911 5910 5908 5907 5905 5905 5904 5904 5903 5903 5902 5902 5901 5900 5899 5898 5898 5897
5938 5938 5939 5938 5937 5937 5936 5936 5936 5935 5935 5933 5932 5930 5929 5927 5925 5925 5924 5922 5920 5918 5916 5915 5913 5911 5910 5908 5907 5906 5905 5904 5904 5903 5903 5903 5902 5901 5900 5899 5898 5897 5897
5937 5938 5939 5939 5938 5937 5937 5936 5936 5936 5935 5934 5932 5931 5929 5928 5926 5925 5925 5923 5921 5919 5917 5916 5913 5912 5910 5908 5907 5906 5906 5904 5904 5903 5903 5903 5902 5901 5900 5899 5898 5898 5897
5938 5938 5938 5938 5938 5937 5937 5937 5937 5936 5936 5934 5932 5931 5929 5928 5926 5925 5924 5923 5921 5919 5918 5916 5914 5912 5911 5909 5907 5905 5905 5905 5904 5904 5903 5902 5902 5901 5899 5898 5898 5897 5896
5937 5937 5937 5937 5937 5936 5936 5937 5936 5935 5935 5933 5931 5930 5929 5927 5925 5924 5923 5922 5920 5919 5918 5917 5915 5913 5911 5909 5907 5905 5903 5903 5903 5902 5902 5901 5901 5900 5900 5898 5896 5896 5895
5936 5935 5935 5934 5935 5934 5934 5934 5933 5932 5932 5930 5929 5928 5927 5926 5924 5923 5923 5922 5920 5919 5917 5916 5915 5913 5911 5909 5906 5904 5901 5900 5900 5900 5900 5900 5900 5899 5898 5897 5896 5895 5894
5933 5932 5932 5931 5931 5931 5931 5930 5929 5928 5928 5927 5926 5925 5925 5924 5922 5922 5922 5921 5919 5918 5916 5915 5914 5912 5910 5908 5906 5903 5900 5898 5897 5897 5897 5898 5897 5897 5896 5895 5894 5893 5893
5929 5929 5929 5929 5928 5927 5927 5927 5926 5925 5924 5924 5923 5923 5921 5920 5920 5919 5919 5919 5918 5916 5915 5913 5912 5910 5908 5907 5905 5903 5900 5897 5895 5894 5894 5894 5894 5894 5893 5892 5891 5891 5891
5926 5926 5926 5926 5925 5924 5924 5923 5922 5921 5919 5919 5918 5918 5918 5916 5915 5914 5914 5914 5914 5913 5912 5911 5910 5908 5906 5904 5903 5901 5898 5895 5893 5891 5891 5891 5891 5890 5890 5890 5889 5889 5888
5923 5923 5923 5921 5921 5920 5919 5917 5916 5915 5914 5913 5912 5912 5912 5911 5909 5909 5908 5908 5908 5909 5908 5907 5907 5905 5903 5902 5900 5899 5896 5893 5891 5888 5888 5887 5887 5886 5886 5886 5886 5886 5885
5920 5919 5918 5916 5915 5914 5912 5911 5910 5909 5908 5908 5907 5907 5907 5906 5904 5904 5903 5902 5902 5903 5903 5902 5902 5901 5899 5898 5897 5896 5893 5891 5888 5886 5884 5884 5883 5882 5882 5883 5882 5882 5882
5915 5914 5913 5912 5910 5909 5908 5907 5905 5904 5903 5903 5902 5902 5902 5902 5901 5900 5898 5897 5897 5897 5897 5896 5896 5896 5894 5893 5893 5892 5891 5888 5886 5884 5882 5881 5880 5878 5877 5878 5878 5878 5878
5911 5910 5909 5908 5906 5904 5902 5901 5900 5899 5898 5897 5896 5895 5895 5894 5893 5893 5892 5892 5892 5892 5892 5891 5891 5890 5889 5889 5888 5887 5886 5884 5882 5880 5878 5877 5875 5874 5874 5874 5874 5874 5874
5906 5905 5904 5903 5901 5899 5897 5895 5894 5893 5892 5891 5890 5888 5887 5886 5885 5884 5884 5884 5884 5885 5885 5885 5884 5885 5885 5884 5884 5882 5880 5879 5877 5875 5874 5872 5871 5870 5869 5869 5870 5869 5868
5899 5898 5897 5895 5894 5893 5891 5889 5888 5887 5886 5885 5883 5881 5881 5880 5878 5877 5877 5877 5876 5877 5878 5878 5879 5879 5878 5877 5877 5876 5875 5873 5871 5870 5870 5868 5866 5864 5864 5863 5862 5863 5862
5891 5890 5889 5889 5887 5886 5885 5884 5882 5880 5878 5878 5876 5874 5872 5872 5871 5870 5871 5870 5868 5869 5870 5869 5871 5872 5872 5872 5871 5870 5869 5868 5866 5865 5864 5862 5860 5859 5857 5857 5856 5856 5856
5883 5883 5882 5880 5878 5877 5876 5876 5873 5871 5868 5866 5865 5864 5862 5862 5864 5864 5862 5860 5859 5860 5861 5861 5861 5863 5863 5864 5865 5864 5862 5861 5859 5858 5856 5853 5851 5851 5850 5850 5850 5850 5850
5873 5873 5872 5870 5867 5865 5864 5864 5862 5860 5856 5852 5853 5854 5853 5854 5855 5855 5853 5849 5847 5848 5850 5851 5854 5856 5855 5854 5855 5855 5855 5853 5851 5850 5847 5846 5844 5843 5843 5842 5843 5843 5843
5864 5863 5862 5860 5857 5854 5852 5850 5846 5845 5846 5842 5842 5845 5844 5845 5844 5840 5835 5833 5834 5834 5836 5839 5843 5846 5847 5845 5845 5847 5848 5845 5842 5842 5839 5837 5837 5836 5836 5835 5835 5835 5835
5855 5853 5852 5849 5846 5841 5839 5837 5831 5830 5833 5832 5832 5835 5835 5831 5829 5824 5814 5811 5817 5820 5825 5828 5833 5836 5837 5836 5836 5838 5840 5837 5835 5834 5832 5829 5827 5829 5828 5827 5827 5826 5826
5845 5843 5841 5839 5836 5832 5828 5825 5820 5818 5818 5819 5819 5821 5821 5817 5812 5807 5802 5796 5805 5810 5816 5818 5821 5824 5827 5827 5826 5827 5829 5829 5827 5826 5824 5821 5818 5819 5818 5818 5818 5816 5816
5834 5832 5830 5827 5824 5821 5819 5815 5811 5808 5808 5808 5808 5807 5805 5801 5799 5799 5797 5801 5803 5802 5806 5807 5810 5812 5815 5817 5819 5818 5817 5817 5817 5818 5816 5813 5811 5808 5808 5808 5808 5807 5806
5823 5820 5818 5814 5811 5809 5806 5804 5799 5795 5792 5792 5792 5790 5788 5786 5785 5786 5789 5791 5791 5792 5795 5798 5800 5800 5804 5808 5810 5811 5809 5808 5809 5809 5808 5806 5803 5801 5800 5799 5799 5798 5799